STARLINK-37066, 68081

Orbit data source: Space-Track

STARLINK-37066, 68081 is a payload satellite owned by SpaceX/Seattle (US) in LEO that was launched on Wed, 04 Mar 2026 UTC via an FALCON 9 launch vehicle from the Air Force Eastern Test Range (AFETR). Payload-class satellites include a variety of spacecraft equipped with specific instruments for various scientific and technological missions. These include communications satellites like Starlink; space stations such as the ISS; scientific satellites like the Hubble; Earth observation satellites from companies like Planet Labs, Umbra, and HawkEye 360; GPS; miniature CubeSats for education and research; and military/defense satellites.

Loading next visibility...
Identifier
68081, 2026-042N
Orbit
LEO
Country
Flag of USUS
Related business
Manufacturer
SpaceX/Seattle
Mission
Operational Commercial Communications
Bus & Motor
STARLINK V2MO, Unknown motor
Mass
575 kg wet, ~530 kg dry
Launch date (UTC)
2026-03-04 (2 months ago)
Launch vehicle
FALCON 9
Launch site
Air Force Eastern Test Range (AFETR)
Object type
Payload
Rocket body
Debris
Shape & HBR
Box + 2 Pan, 17.7 m
Radar Cross Section
36.964 m²

Expand to show TLE details & history
Last TLE update: 8 hours ago

TLE from 8 hours ago
0 STARLINK-37066
1 68081U 26042N   26119.25003472  .00029621  00000-0  53908-3 0  9997
2 68081  53.1587 303.6943 0000915  83.4595  96.9448 15.49284312  5926
Epoch: 2026-04-29T06:00Z
TLE epoch observation values (Epoch: 2026-04-29T06:00:02.999Z)
Latitude
-0.41516°
Longitude
176.77743°
Altitude
419.856 km
Speed
7.66 km/s
True Right ascension
08h 16m 00s
True Declination
0° 24' 45"
Sunlit
Object was in daylight at epoch
Visualization orbit readout
Latitude
Unknown
Longitude
Unknown
Altitude
Unknown
Speed
Unknown
Apparent Right ascension
Unknown
Apparent Declination
Unknown
Sunlit
N/A
Visualization observer readout
Local Sidereal Time
21:53:03
Azimuth
Unknown
Elevation
Unknown
Doppler factor
Unknown
Orbital elements
Apogee altitude
419.699 km
Perigee altitude
418.455 km
Semi-major axis
6,797.214 km
Eccentricity
0.00009
Inclination
53.1587°
RAAN
303.6943°
Arg. of periapsis
83.4595°
True anomaly
96.95521°
Mean anomaly
96.9448°
Eccentric anomaly
96.95°
Mean motion
3.87299 °/min
Orbital period
92.95 mins
BSTAR
0.00053908
Loading maneuver chart data...
Computing Atmospheric mass density...
Loading historical data...
Loading historical data...
Loading historical data...
Loading historical data...
Loading historical data...
Loading historical data...
Loading historical data...

Documentation

Showing up to 5 results
|